Location: Jackson Park
(37.2862°N, 79.9123°W)
Time: 14:22:48
(UTC+00:00)

Tiros 1 despin weight - Pass Details

Date: 18 May 2026
Orbit: 554 x 591 km, 48.2° (Epoch: 6 June)

Event Time Altitude Azimuth Distance (km) Brightness Sun altitude
Rises 08:47:55 0° 233° (SW) 2,767 - -14.4°
Reaches altitude 10° 08:50:11 10° 233° (SW) 1,866 - -14.0°
Exits shadow 08:51:50 23° 233° (SW) 1,232 ? -13.8°
Maximum altitude 08:54:27 87° 146° (SSE) 570 ? -13.4°
Drops below altitude 10° 08:58:42 10° 56° (NE) 1,851 ? -12.7°
Sets 09:00:57 0° 56° (ENE) 2,744 ? -12.3°
